sat.trackr.live / text

‹ back to catalog

STARLINK-36076

NORAD 66588 · 2025-270A

PAYLOAD ACTIVE UNKNOWN

§ Identity

Operator
Country
US
Launch date
2025-11-22
Launch site
AFETR
Launch vehicle
Mass (kg)
RCS (m²)

Purposes: comms

External: N2YO · Heavens-Above · Gunter

§ Orbital elements

Epoch: 2026-09-20T19:58:36.551136Z

Period
94.27 min
Inclination
43.0035°
Eccentricity
0.0003232
Mean motion
15.27589984 rev/d
Perigee alt
480.8 km
Apogee alt
485.2 km
Semi-major
6,861.2 km
B*
4.5903e-4
RAAN
33.8407°
Arg perigee
20.1306°
Mean anomaly
339.9673°
Rev number
4,755

§ Raw data

STARLINK-360761 66588U 25270A   26263.83236749  .00012395  00000+0  45903-3 0  99932 66588  43.0035  33.8407 0003232  20.1306 339.9673 15.27589984 47556

JSON: /api/v1/satellites/66588 · /tle

For live sub-satellite position, see the globe view (requires WebGL).

§ Visibility from observer

Set your observer location to see the next 7 days of passes ≥ 10°. The values pass through the URL so the page stays shareable.

No JS? Fill the form by hand. The geolocation button needs JavaScript.